Location: Shell Point
(30.0571°N, 84.2896°W)
Time: 00:55:16
(UTC-05:00)

Meteor 2-19 Rocket - Visible Passes

Search period start: 07 February 2016 00:00
Search period end: 17 February 2016 00:00
Orbit: 937 x 958 km, 82.5° (Epoch: 06 February)

Date Brightness Start Highest point End Pass type
(mag) Time Alt. Az. Time Alt. Az. Time Alt. Az.
07 Feb 5.4 05:41:42 10° N 05:47:39 49° E 05:53:31 10° SSE visible
07 Feb 5.1 18:59:51 10° SSW 19:05:52 61° W 19:11:57 10° N visible
08 Feb 4.5 05:58:30 10° N 06:04:40 82° E 06:10:47 10° S visible
08 Feb 6.1 19:17:23 10° SW 19:22:57 37° W 19:28:35 10° NNW visible
09 Feb 7.1 04:33:10 10° NE 04:36:26 15° ENE 04:39:41 10° ESE visible
09 Feb 4.4 06:15:35 10° NNW 06:21:37 60° W 06:27:36 10° S visible
09 Feb 6.9 19:35:31 10° SW 19:40:08 22° WNW 19:44:48 10° NNW visible
10 Feb 6.5 04:48:45 10° NNE 04:53:41 25° ENE 04:58:35 10° SE visible
10 Feb 5.0 06:32:59 10° NNW 06:38:29 36° W 06:43:57 10° SSW visible
10 Feb 7.4 19:54:48 10° W 19:57:26 13° WNW 20:00:03 10° NW visible
11 Feb 5.6 05:05:05 10° N 05:10:50 41° E 05:16:33 10° SSE visible
11 Feb 5.5 06:50:49 10° NW 06:55:16 21° W 06:59:40 10° SW visible
12 Feb 4.7 05:21:47 10° N 05:27:55 69° E 05:33:59 10° SSE visible
12 Feb 5.8 18:40:23 10° SSW 18:46:09 44° W 18:52:00 10° N visible
13 Feb 7.2 03:57:23 10° NE 03:59:33 12° ENE 04:01:42 10° E visible
13 Feb 4.3 05:38:46 10° N 05:44:53 72° W 05:50:57 10° S visible
13 Feb 6.8 18:58:16 10° SW 19:03:18 26° WNW 19:08:23 10° NNW visible
14 Feb 6.6 04:12:22 10° NNE 04:16:51 21° ENE 04:21:17 10° ESE visible
14 Feb 4.7 05:56:03 10° NNW 06:01:47 43° W 06:07:28 10° SSW visible
14 Feb 7.2 19:17:01 10° WSW 19:20:33 16° WNW 19:24:07 10° NW visible
15 Feb 5.8 04:28:31 10° NNE 04:34:02 34° E 04:39:31 10° SE visible
15 Feb 5.3 06:13:42 10° NW 06:18:35 25° W 06:23:27 10° SW visible
16 Feb 4.9 04:45:06 10° N 04:51:08 58° E 04:57:06 10° SSE visible
16 Feb 5.8 06:32:07 10° NW 06:35:18 15° W 06:38:30 10° WSW visible
